Regional Weather Roundup
Issued by NWS

Home | Current Version | Previous Version | Text Only | Print | Product List | Glossary Off
Versions: 1 2 3 4 5 6 7 8 9 10 11 12 13 14 15 16 17 18 19 20 21 22 23 24 25 26 27 28 29 30 31 32 33 34 35 36 37 38 39 40 41 42 43 44 45 46 47 48 49 50

000
ASUS43 KFSD 290210
RWRSD

WEATHER ROUNDUP FOR SOUTH DAKOTA
NATIONAL WEATHER SERVICE SIOUX FALLS SD
900 PM CDT THU JUL 28 2016

NOTE: "FAIR" INDICATES FEW OR NO CLOUDS BELOW 12,000 FEET WITH NO
SIGNIFICANT WEATHER AND/OR OBSTRUCTIONS TO VISIBILITY.


SDZ001>005-009-010-012>017-290300-
NORTHWEST AND NORTH CENTRAL SOUTH DAKOTA

CITY           SKY/WX    TMP DP  RH WIND       PRES   REMARKS
BUFFALO          N/A     67  63  87 E10       30.08R
FAITH            N/A     63  60  90 E8        30.12S
MOBRIDGE       MOCLDY    72  55  55 N5        30.07S
$$

SDZ012>016-024>037-041>051-057-063-072>074-290300-
SOUTHWEST AND SOUTH CENTRAL SOUTH DAKOTA

CITY           SKY/WX    TMP DP  RH WIND       PRES   REMARKS
RAPID CTY ARPT MOCLDY    70  58  65 E9        30.13S
PIERRE         CLOUDY    66  63  90 CALM      30.07F
CUSTER         PTCLDY    61  53  75 E7        30.24S
PHILIP         LGT RAIN  64  61  90 NE5       30.11R
PINE RIDGE     CLEAR     69  60  73 NE7       30.14R
WINNER         TSTM      65  62  90 W6        30.10S FOG
$$

SDZ004>011-016>023-039-040-290300-
NORTHEAST SOUTH DAKOTA

CITY           SKY/WX    TMP DP  RH WIND       PRES   REMARKS
ABERDEEN       PTCLDY    72  63  73 E3        30.06R
WATERTOWN      CLEAR     71  56  58 E6        30.07S
BROOKINGS      CLEAR     68  58  70 NE7       30.07R
SISSETON         N/A     69  63  81 E3        30.05R
$$

SDZ017-020-022-023-036>040-048>070-290300-
SOUTHEAST SOUTH DAKOTA

CITY           SKY/WX    TMP DP  RH WIND       PRES   REMARKS
SIOUX FALLS    MOCLDY    67  57  70 NE6       30.05R
HURON          MOCLDY    72  58  61 E7        30.05R
CHAMBERLAIN    CLOUDY    76  60  57 NE3       30.06R
MITCHELL       MOCLDY    72  61  68 E6        30.05R
YANKTON        PTCLDY    73  61  64 NE6       30.02R
$$

ABBREVIATIONS USED IN REMARKS
   TC - TEMPERATURE IN CELSIUS
  WCI - WIND CHILL INDEX
   HX - HEAT INDEX
  VSB - VISIBILITY




USA.gov is the U.S. government's official web portal to all federal, state and local government web resources and services.